{"data":{"norad_id":53798,"epoch":"2026-09-20T04:25:01.526880Z","epoch_age_seconds":111318,"freshness":"FRESH","line1":"1 53798U 22111AB  26263.18404545  .00000199  00000+0  18189-4 0  9998","line2":"2 53798  53.1590 107.3424 0001333  84.4158 275.6995 15.31697892223223","mean_motion":15.31697892,"eccentricity":0.0001333,"inclination_deg":53.159,"raan_deg":107.3424,"arg_perigee_deg":84.4158,"mean_anomaly_deg":275.6995,"bstar":1.8189e-5,"rev_number":22322,"period_min":94.013317346787,"perigee_km":469.83332293006,"apogee_km":471.65923521226,"semimajor_km":6848.8832790712,"source":"CELESTRAK","updated_at":"2026-09-21T09:00:32.995509Z"}}